Regional Weather Roundup
Issued by NWS

Home | Current Version | Previous Version | Graphics & Text | Print | Product List | Glossary On
Versions: 1 2 3 4 5 6 7 8 9 10 11 12 13 14 15 16 17 18 19 20 21 22 23 24 25 26 27 28 29 30 31 32 33 34 35 36 37 38 39 40 41 42 43 44 45 46 47 48 49 50
000
ASUS43 KLOT 210608
RWRIL

ILLINOIS REGIONAL WEATHER ROUNDUP
NATIONAL WEATHER SERVICE CHICAGO/ROMEOVILLE IL
100 AM CDT TUE APR 21 2015

NOTE: "FAIR" INDICATES FEW OR NO CLOUDS BELOW 12,000 FEET WITH NO
SIGNIFICANT WEATHER AND/OR OBSTRUCTIONS TO VISIBILITY.

* THESE STATIONS ARE NOT UNDER NWS QUALITY CONTROL. THEY ALSO MAY NOT
  REPORT WEATHER SUCH AS PRECIPITATION OR FOG.

ILZ001-002-007-009-015-016-024-210700-
NORTHWEST ILLINOIS

CITY           SKY/WX    TMP DP  RH WIND       PRES   REMARKS
MOLINE         MOCLDY    41  32  70 W10       29.68F
6HR MIN TEMP:  35; 6HR MAX TEMP:  49; 6HR PCP: TRACE;

STERLING*      MOCLDY    41  34  75 W13       29.65F
SAVANNA*       FAIR      42  32  66 W13G20    29.64S
$$

ILZ003-004-008-010-011-017-018-210700-
NORTH CENTRAL ILLINOIS

CITY           SKY/WX    TMP DP  RH WIND       PRES   REMARKS
ROCKFORD       FAIR      41  31  67 W10       29.63R
6HR MIN TEMP:  41; 6HR MAX TEMP:  46;

FREEPORT*      FAIR      39  30  72 W13       29.62S WCI  31
ROCHELLE*      MOCLDY    39  33  80 SW13      29.63F WCI  31
DE KALB*       MOCLDY    39  32  77 SW16G25   29.62S WCI  30
PERU*          MOCLDY    42  36  79 W10       29.68R
$$

ILZ005-006-012>014-019>023-210700-
NORTHEAST ILLINOIS

CITY           SKY/WX    TMP DP  RH WIND       PRES   REMARKS
CHICAGO-OHARE  MOCLDY    41  33  73 W12       29.61S
6HR MIN TEMP:  41; 6HR MAX TEMP:  46;

CHICAGO-MIDWAY CLOUDY    44  35  70 SW12      29.62F
6HR MIN TEMP:  43; 6HR MAX TEMP:  48; 6HR PCP: TRACE;

AURORA         MOCLDY    41  33  73 SW12      29.63F
6HR MIN TEMP:  41; 6HR MAX TEMP:  46;

LANSING*       CLOUDY    43  32  64 SW10      29.65F
JOLIET*        CLOUDY    44  35  70 SW9       29.65F
WAUKEGAN       CLOUDY    40  31  70 SW13      29.57S
6HR MIN TEMP:  40; 6HR MAX TEMP:  44;

DUPAGE AIRPORT CLOUDY    41  33  73 SW13      29.61S
6HR MIN TEMP:  40; 6HR MAX TEMP:  46;

KANKAKEE*      FAIR      36  33  90 S5        29.69S WCI  32
WHEELING       FAIR      41  33  73 SW10      29.61S
6HR MIN TEMP:  41; 6HR MAX TEMP:  46;

MORRIS*        FAIR      40  34  78 W7        29.63F
ROMEOVILLE*    CLOUDY    42  33  72 W13       29.64S
NORTHERLY ISL    N/A     44  33  65 SW8         N/A
$$

LMZ740>746-210700-
SOUTHERN LAKE MICHIGAN

STATION/POSITION SKY/WX   TEMP    WIND        PRES    VSBY  WAVE
                          AIR SEA DIR/SP/G                  HT/PER
                          (F)     (DEG/KT/KT) (MB)    (MI)  (FT/S)
HARRISON CRIB              44     240/ 18/ 25   N/A
BURNHAM HARBOR             44     240/  5/ 12   N/A
CALUMET HARBOR             44     230/  7/ 12   N/A
BURNS HARBOR               45     240/ 15/ 18 1004.4S
MICHIGAN CITY              45     200/ 17/ 22   N/A
MICHIGAN CITY 6N           45 45  250/ 17/ 21   N/A           4/ 4
$$

ILZ025>027-034>036-040-047-049-050-058-095>099-210700-
WEST-CENTRAL ILLINOIS

CITY           SKY/WX    TMP DP  RH WIND       PRES   REMARKS
QUINCY         FAIR      42  28  57 SW10      29.76S
GALESBURG*     FAIR      37  30  74 W7        29.72R WCI  32
MACOMB*        FAIR      40  32  72 W10       29.75S
JACKSONVILLE*  FAIR      45  33  63 SW12      29.76F
PITTSFIELD*    FAIR      47  29  50 SW12      29.78S
$$

ILZ028>032-037-038-041>044-048-051>054-059>061-210700-
CENTRAL ILLINOIS

CITY           SKY/WX    TMP DP  RH WIND       PRES   REMARKS
PONTIAC        FAIR      41  35  79 NW8       29.69R
BLOOMINGTON    FAIR      41  34  76 SW13      29.71S
DECATUR        FAIR      45  33  63 SW12      29.75S
PEORIA         FAIR      45  30  55 W9        29.70S
6HR MIN TEMP:  44; 6HR MAX TEMP:  52;

LACON*         FAIR      42  30  63 W5        29.69R
LINCOLN*       FAIR      44  33  67 SW6       29.73S
SPRINGFIELD    FAIR      46  31  55 SW13      29.76S
6HR MIN TEMP:  43; 6HR MAX TEMP:  52;

TAYLORVILLE    FAIR      43  32  65 SW13      29.77S
$$

ILZ033-039-045-046-055>057-062-063-210700-
EAST-CENTRAL ILLINOIS

CITY           SKY/WX    TMP DP  RH WIND       PRES   REMARKS
CHAMPAIGN      FAIR      42  35  76 SW13      29.73F
DANVILLE*      FAIR      43  36  77 SW14      29.70F
RANTOUL*       FAIR      43  37  79 SW16      29.71F
MATTOON        FAIR      44  34  67 SW9       29.77S
PARIS*         FAIR      43  37  78 SW12      29.77F
$$

ILZ079-100>102-210700-
SOUTHWEST ILLINOIS

CITY           SKY/WX    TMP DP  RH WIND       PRES   REMARKS
ALTON          FAIR      46  28  51 SW10      29.82S
BELLEVILLE     FAIR      44  34  69 SW6       29.83S
CAHOKIA*       FAIR      50  31  48 SW8       29.83F
SPARTA*        FAIR      47  32  57 SW6       29.88S
$$

ILZ064>066-069>071-074>076-080>082-084>086-088>090-092>094-210700-
SOUTH-CENTRAL ILLINOIS

CITY           SKY/WX    TMP DP  RH WIND       PRES   REMARKS
CARBONDALE     FAIR      44  34  67 SW7       29.88F
6HR MIN TEMP:  43; 6HR MAX TEMP:  57;

CAIRO*         FAIR      51  38  61 W6        29.91S
EFFINGHAM*     FAIR      44  32  62 S6        29.82S
MARION         FAIR      46  36  66 SW3       29.89S
MT. VERNON     FAIR      43  32  65 SW6       29.86S
CENTRALIA*     FAIR      44  34  67 SW9       29.84S
SALEM*         FAIR      45  36  69 S7        29.83F
METROPOLIS*    FAIR      48  41  76 CALM      29.90S
$$

ILZ067-068-072-073-078-083-087-091-210700-
SOUTHEAST ILLINOIS

CITY           SKY/WX    TMP DP  RH WIND       PRES   REMARKS
LAWRENCEVILLE  FAIR      46  36  68 SW9       29.83S
FLORA*         FAIR      44  35  71 SW8       29.84S
FAIRFIELD*     FAIR      45  37  71 SW3       29.84F
HARRISBURG*    FAIR      46  35  67 W6        29.90S
ROBINSON*      FAIR      44  37  74 SW9       29.82F
CARMI*         FAIR      45  35  66 SW8       29.87S
$$

ABBREVIATIONS USED IN REMARKS
   TC - TEMPERATURE IN CELSIUS
  WCI - WIND CHILL INDEX
   HX - HEAT INDEX
  VSB - VISIBILITY
$$



USA.gov is the U.S. government's official web portal to all federal, state and local government web resources and services.